Regional Weather Roundup
Issued by NWS

Home | Current Version | Previous Version | Text Only | Print | Product List | Glossary On
Versions: 1 2 3 4 5 6 7 8 9 10 11 12 13 14 15 16 17 18 19 20 21 22 23 24 25 26 27 28
000
ASUS44 KJAN 220610
RWRMS

MISSISSIPPI HOURLY WEATHER ROUNDUP
NATIONAL WEATHER SERVICE JACKSON MS
1200 AM CST MON JAN 22 2018

NOTE: "FAIR: INDICATES FEW OR NO CLOUDS BELOW 12,000 FEET WITH NO
SIGNIFICANT WEATHER AND/OR OBSTRUCTIONS TO VISIBILITY.

MSZ001>002-007>008-010>013-018>021-025>028-034>036-220700-
NORTHWEST MISSISSIPPI

CITY           SKY/WX    TMP DP  RH WIND       PRES   REMARKS
BATESVILLE     FAIR      64  47  55 SE9       29.93F
CLARKSDALE     CLOUDY    63  57  82 S12       29.90F
CLEVELAND      FAIR      61  55  78 S16G22    29.89F
GREENWOOD      FAIR      64  50  60 S17       29.93F
6HR MIN TEMP:  62; 6HR MAX TEMP:  67;

GREENVILLE     FAIR      63  53  70 S16       29.88F
6HR MIN TEMP:  62; 6HR MAX TEMP:  66;

TUNICA           N/A     61  52  72 S15       29.89F
WINONA         FAIR      62  49  62 S16       29.95F
$$

MSZ003>006-009-014>017-022>024-029>033-037>039-220700-
NORTHEAST MISSISSIPPI

CITY           SKY/WX    TMP DP  RH WIND       PRES   REMARKS
ABERDEEN         N/A     61  52  72 S10       30.00F
COLUMBUS AFB   FAIR      60  48  64 SE13      29.99F
6HR MIN TEMP:  51; 6HR MAX TEMP:  62;

CORINTH        FAIR      61  45  55 SE12      29.95S
GOLDN TRIANGLE FAIR      59  47  64 S14       30.00F
STARKVILLE     FAIR      59  46  63 S12G18    30.00F
TUPELO         FAIR      61  44  53 S13       29.98S
6HR MIN TEMP:  60; 6HR MAX TEMP:  64;

$$

MSZ040-058-220700-
CENTRAL MISSISSIPPI

CITY           SKY/WX    TMP DP  RH WIND       PRES   REMARKS
JACKSON INTL   FAIR      60  56  86 SE14      29.97F
6HR MIN TEMP:  60; 6HR MAX TEMP:  67;

JACKSON HAWKNS FAIR      61  57  87 S21G28    29.97F
6HR MIN TEMP:  61; 6HR MAX TEMP:  67;

MADISON        FAIR      59  54  82 SE7       29.97F
MERIDIAN KEY   FAIR      58  47  66 S9        30.03F
6HR MIN TEMP:  57; 6HR MAX TEMP:  65;

MERIDIAN NAS   FAIR      60  47  61 SE6       30.03F
6HR MIN TEMP:  58; 6HR MAX TEMP:  66;

RAYMOND        FAIR      63  57  82 S15G21    29.96F
VICKSBURG VKS  MOCLDY    63  57  82 S12       29.95F
$$

MSZ059>079-220700-
SOUTH MISSISSIPPI

CITY           SKY/WX    TMP DP  RH WIND       PRES   REMARKS
HATTIESBURG    MOCLDY    56  55  97 SE8       30.05F
6HR MIN TEMP:  55; 6HR MAX TEMP:  65;

LAUREL         FAIR      56  55  97 SE6       30.06F
MCCOMB         CLOUDY    61  57  87 SE13G21   30.00F
6HR MIN TEMP:  60; 6HR MAX TEMP:  67;

NATCHEZ        CLOUDY    63  59  87 S15       29.95
6HR MIN TEMP:  63; 6HR MAX TEMP:  67;

PINE BELT      MOCLDY    57  55  93 S10       30.05F
6HR MIN TEMP:  55; 6HR MAX TEMP:  65;

$$

MSZ080>082-220700-
COASTAL MISSISSIPPI

CITY           SKY/WX    TMP DP  RH WIND       PRES   REMARKS
BILOXI         FAIR      62  59  88 SE10G21   30.05F
6HR MIN TEMP:  60; 6HR MAX TEMP:  62;

PASCAGOULA     FAIR      59  56  89 SE7       30.07F
6HR MIN TEMP:  56; 6HR MAX TEMP:  60;

GULFPORT       FAIR      60  58  92 SE12      30.04F
6HR MIN TEMP:  59; 6HR MAX TEMP:  62;

$$

LAZ007>009-015>016-023>026-220700-
NORTHEAST LOUISIANA

CITY           SKY/WX    TMP DP  RH WIND       PRES   REMARKS
BASTROP        MOCLDY    64  59  84 S9G20     29.87F
TALLULAH/VBURG FAIR      62  58  86 S13       29.95F
6HR MIN TEMP:  62; 6HR MAX TEMP:  67;

VIDALIA        CLOUDY   N/A N/A N/A MISG      29.95S
$$




USA.gov is the U.S. government's official web portal to all federal, state and local government web resources and services.